ELY5127 LLBG-LUKK

Flight info

Callsign ELY5127
Flight time N/A
Altitude 34000
Route SUVAS N128 TEZAK L324 SAFTA DCT TOMBI UA16 AYT UQ23 OSVEL UL619 MAKOL DCT LUGEB DCT RIPGA/N0461F350 DCT KODRU T34 LIPTA
Aircraft B738/M-SDE2E3FGHIRWXY/LB1

Departure

Time N/A
Airport Ben Gurion International Airport (LLBG)

Arrival

Time 2026-05-09 20:42
Airport Chişinău International Airport (LUKK)
Time Latitude Longitude Altitude Speed Heading
2026-05-09 19:23 39.00866 30.76497 34110 ft 448 kts 337°
2026-05-09 19:24 39.06690 30.73662 34117 ft 447 kts 337°
2026-05-09 19:24 39.12514 30.70822 34113 ft 448 kts 337°
2026-05-09 19:25 39.18342 30.67976 34130 ft 448 kts 337°
2026-05-09 19:25 39.24171 30.65124 34103 ft 448 kts 337°
2026-05-09 19:26 39.29997 30.62268 34105 ft 448 kts 337°
2026-05-09 19:26 39.35816 30.59411 34109 ft 447 kts 338°
2026-05-09 19:27 39.41630 30.56550 34098 ft 447 kts 338°
2026-05-09 19:27 39.47438 30.53688 34100 ft 446 kts 338°
2026-05-09 19:28 39.53239 30.50824 34110 ft 446 kts 338°
2026-05-09 19:28 39.58970 30.47757 34111 ft 446 kts 335°
2026-05-09 19:29 39.64612 30.44428 34120 ft 445 kts 334°
2026-05-09 19:29 39.70252 30.41079 34124 ft 446 kts 334°
2026-05-09 19:30 39.75898 30.37759 34124 ft 446 kts 335°
2026-05-09 19:30 39.81554 30.34447 34124 ft 446 kts 335°
2026-05-09 19:31 39.87208 30.31136 34112 ft 446 kts 335°
2026-05-09 19:31 39.92863 30.27818 34105 ft 446 kts 334°
2026-05-09 19:32 39.98521 30.24491 34096 ft 446 kts 334°
2026-05-09 19:32 40.04175 30.21160 34082 ft 446 kts 334°
2026-05-09 19:33 40.09829 30.17823 34062 ft 446 kts 334°
2026-05-09 19:33 40.15485 30.14478 34058 ft 446 kts 334°
2026-05-09 19:34 40.21135 30.11131 34056 ft 446 kts 334°
2026-05-09 19:34 40.26783 30.07779 34050 ft 445 kts 334°
2026-05-09 19:35 40.32422 30.04426 34050 ft 445 kts 334°
2026-05-09 19:35 40.38048 30.01075 34052 ft 444 kts 334°
2026-05-09 19:36 40.42721 29.98286 34049 ft 443 kts 334°
2026-05-09 19:36 40.48332 29.94933 34053 ft 443 kts 334°
2026-05-09 19:37 40.53932 29.91580 34056 ft 442 kts 334°
2026-05-09 19:37 40.59531 29.88220 34065 ft 443 kts 334°
2026-05-09 19:38 40.65137 29.84851 34067 ft 443 kts 334°
2026-05-09 19:38 40.70744 29.81475 34069 ft 443 kts 334°
2026-05-09 19:39 40.76349 29.78093 34061 ft 443 kts 334°
2026-05-09 19:39 40.81958 29.74703 34059 ft 443 kts 334°
2026-05-09 19:40 40.87568 29.71306 34047 ft 444 kts 334°
2026-05-09 19:40 40.93180 29.67901 34047 ft 444 kts 334°
2026-05-09 19:41 40.98795 29.64488 34045 ft 444 kts 334°
2026-05-09 19:41 41.04403 29.61073 34041 ft 444 kts 333°
2026-05-09 19:42 41.10007 29.57654 34039 ft 443 kts 333°
2026-05-09 19:42 41.15595 29.54238 34040 ft 442 kts 333°
2026-05-09 19:43 41.21237 29.50999 34025 ft 443 kts 340°
2026-05-09 19:43 41.27163 29.48740 34030 ft 443 kts 342°
2026-05-09 19:44 41.33101 29.46565 34034 ft 442 kts 342°
2026-05-09 19:44 41.39026 29.44352 34032 ft 442 kts 342°
2026-05-09 19:45 41.44935 29.42111 34032 ft 441 kts 341°
2026-05-09 19:45 41.50840 29.39859 34029 ft 441 kts 341°
2026-05-09 19:46 41.56736 29.37606 34038 ft 441 kts 341°
2026-05-09 19:46 41.62633 29.35349 34032 ft 441 kts 341°
2026-05-09 19:47 41.68526 29.33089 34036 ft 440 kts 341°
2026-05-09 19:47 41.74416 29.30827 34036 ft 440 kts 341°
2026-05-09 19:48 41.80301 29.28563 34035 ft 440 kts 341°
2026-05-09 19:48 41.86184 29.26294 34037 ft 440 kts 341°
2026-05-09 19:49 41.92064 29.24023 34034 ft 440 kts 341°
2026-05-09 19:49 41.97941 29.21748 34037 ft 439 kts 340°
2026-05-09 19:50 42.03818 29.19469 34033 ft 439 kts 340°
2026-05-09 19:50 42.09692 29.17186 34035 ft 439 kts 340°
2026-05-09 19:51 42.15566 29.14899 34031 ft 440 kts 340°
2026-05-09 19:51 42.21395 29.12602 34030 ft 440 kts 340°
2026-05-09 19:52 42.27261 29.10248 34033 ft 440 kts 340°
2026-05-09 19:52 42.33127 29.07887 34031 ft 440 kts 340°
2026-05-09 19:53 42.39001 29.05522 34031 ft 441 kts 340°
2026-05-09 19:53 42.44878 29.03154 34034 ft 441 kts 340°
2026-05-09 19:54 42.50763 29.00779 34029 ft 442 kts 340°
2026-05-09 19:54 42.56657 28.98396 34030 ft 442 kts 340°
2026-05-09 19:55 42.62558 28.96004 34032 ft 443 kts 340°
2026-05-09 19:56 42.71433 28.92399 34033 ft 444 kts 340°
2026-05-09 19:56 42.77361 28.89984 34033 ft 445 kts 340°
2026-05-09 19:57 42.83304 28.87559 34035 ft 446 kts 340°
2026-05-09 19:57 42.89259 28.85125 34030 ft 447 kts 340°
2026-05-09 19:58 42.95226 28.82680 34030 ft 448 kts 340°
2026-05-09 19:58 43.01206 28.80225 34034 ft 449 kts 340°
2026-05-09 19:59 43.07199 28.77760 34034 ft 450 kts 340°
2026-05-09 19:59 43.13201 28.75286 34037 ft 451 kts 340°
2026-05-09 20:00 43.19213 28.72803 34034 ft 452 kts 340°
2026-05-09 20:00 43.25227 28.70313 34037 ft 452 kts 340°
2026-05-09 20:01 43.31251 28.67815 34037 ft 453 kts 340°
2026-05-09 20:01 43.37283 28.65307 34038 ft 453 kts 340°
2026-05-09 20:02 43.43323 28.62792 34042 ft 454 kts 340°
2026-05-09 20:02 43.49370 28.60268 34039 ft 454 kts 340°
2026-05-09 20:03 43.58446 28.56470 34043 ft 455 kts 340°
2026-05-09 20:03 43.64508 28.53926 34032 ft 455 kts 340°
2026-05-09 20:04 43.70566 28.51379 34032 ft 456 kts 341°
2026-05-09 20:04 43.76643 28.48846 34035 ft 456 kts 341°
2026-05-09 20:05 43.82746 28.46399 34026 ft 457 kts 342°
2026-05-09 20:05 43.88855 28.43961 34035 ft 457 kts 342°
2026-05-09 20:06 43.94966 28.41505 34031 ft 457 kts 342°
2026-05-09 20:06 44.01076 28.39036 34027 ft 457 kts 342°
2026-05-09 20:07 44.07189 28.36559 34031 ft 458 kts 342°
2026-05-09 20:07 44.13302 28.34076 34034 ft 458 kts 342°
2026-05-09 20:08 44.22430 28.30360 34046 ft 458 kts 342°
2026-05-09 20:09 44.28547 28.27862 34046 ft 458 kts 342°
2026-05-09 20:09 44.34668 28.25358 34047 ft 458 kts 342°
2026-05-09 20:10 44.40792 28.22846 34044 ft 459 kts 342°
2026-05-09 20:10 44.46915 28.20330 34045 ft 459 kts 342°
2026-05-09 20:11 44.53045 28.17806 34041 ft 459 kts 342°
2026-05-09 20:11 44.59180 28.15274 34038 ft 460 kts 342°
2026-05-09 20:12 44.65312 28.12737 34040 ft 460 kts 342°
2026-05-09 20:12 44.71453 28.10191 34040 ft 460 kts 343°
2026-05-09 20:13 44.77594 28.07640 34044 ft 460 kts 343°
2026-05-09 20:13 44.83738 28.05081 34046 ft 460 kts 343°
2026-05-09 20:14 44.89884 28.02516 34046 ft 461 kts 343°
2026-05-09 20:14 44.96027 27.99946 34042 ft 461 kts 343°
2026-05-09 20:15 45.02175 27.97369 34044 ft 461 kts 343°
2026-05-09 20:15 45.08323 27.94785 34045 ft 461 kts 343°
2026-05-09 20:16 45.14476 27.92195 34052 ft 461 kts 343°
2026-05-09 20:16 45.20796 27.90742 34053 ft 462 kts 359°
2026-05-09 20:17 45.27179 27.91730 34059 ft 462 kts
2026-05-09 20:17 45.33533 27.93236 34050 ft 463 kts
2026-05-09 20:18 45.39899 27.94712 34053 ft 464 kts
2026-05-09 20:18 45.46283 27.96136 34055 ft 465 kts
2026-05-09 20:19 45.52646 27.97536 34040 ft 460 kts
2026-05-09 20:19 45.58914 27.98918 34058 ft 460 kts
2026-05-09 20:20 45.65255 28.00320 34060 ft 462 kts
2026-05-09 20:20 45.71616 28.01732 34059 ft 464 kts
2026-05-09 20:21 45.78029 28.02927 33924 ft 468 kts
2026-05-09 20:21 45.80240 28.03118 33714 ft 472 kts
2026-05-09 20:21 45.83480 28.03304 33473 ft 472 kts
2026-05-09 20:21 45.86729 28.03494 33004 ft 463 kts
2026-05-09 20:22 45.89939 28.03705 32134 ft 460 kts
2026-05-09 20:22 45.93115 28.03924 31308 ft 455 kts
2026-05-09 20:22 45.96264 28.04141 30500 ft 451 kts
2026-05-09 20:22 45.99384 28.04354 29629 ft 447 kts
2026-05-09 20:23 46.02474 28.04563 28734 ft 442 kts
2026-05-09 20:23 46.05531 28.04767 27857 ft 438 kts
2026-05-09 20:23 46.08560 28.04968 27005 ft 433 kts
2026-05-09 20:23 46.11556 28.05166 26188 ft 429 kts
2026-05-09 20:24 46.14524 28.05363 25372 ft 425 kts
2026-05-09 20:24 46.17466 28.05557 24598 ft 421 kts
2026-05-09 20:24 46.20378 28.05750 23847 ft 417 kts
2026-05-09 20:24 46.23264 28.05942 22983 ft 413 kts
2026-05-09 20:25 46.26122 28.06132 22117 ft 409 kts
2026-05-09 20:25 46.28952 28.06320 21267 ft 405 kts
2026-05-09 20:25 46.31755 28.06507 20445 ft 401 kts
2026-05-09 20:25 46.34528 28.06692 19643 ft 397 kts
2026-05-09 20:26 46.37278 28.06875 18868 ft 393 kts
2026-05-09 20:26 46.39997 28.07057 18071 ft 390 kts
2026-05-09 20:26 46.42693 28.07238 17202 ft 386 kts
2026-05-09 20:26 46.45363 28.07417 16364 ft 382 kts
2026-05-09 20:27 46.48011 28.07594 15540 ft 380 kts
2026-05-09 20:27 46.50603 28.07768 14757 ft 376 kts
2026-05-09 20:27 46.53209 28.07944 13977 ft 373 kts
2026-05-09 20:27 46.55795 28.08118 13119 ft 371 kts
2026-05-09 20:28 46.58361 28.08290 12277 ft 368 kts
2026-05-09 20:28 46.60912 28.08462 11449 ft 365 kts
2026-05-09 20:28 46.63441 28.08632 10649 ft 362 kts
2026-05-09 20:29 46.68442 28.08970 8994 ft 357 kts
2026-05-09 20:29 46.70909 28.09137 8157 ft 354 kts
2026-05-09 20:29 46.73356 28.09303 7340 ft 350 kts
2026-05-09 20:29 46.75779 28.09467 6539 ft 347 kts
2026-05-09 20:30 46.78152 28.09628 6147 ft 331 kts
2026-05-09 20:30 46.80382 28.09779 5954 ft 312 kts
2026-05-09 20:30 46.82483 28.09922 5793 ft 293 kts
2026-05-09 20:30 46.84466 28.10057 5639 ft 278 kts
2026-05-09 20:31 46.86337 28.10184 5559 ft 260 kts
2026-05-09 20:31 46.88082 28.10302 5547 ft 242 kts
2026-05-09 20:31 46.89704 28.10412 5535 ft 225 kts
2026-05-09 20:31 46.91186 28.10940 5548 ft 220 kts 36°
2026-05-09 20:32 46.92093 28.12667 5504 ft 218 kts 77°
2026-05-09 20:32 46.92075 28.14830 5456 ft 213 kts 102°
2026-05-09 20:32 46.91829 28.16985 5356 ft 215 kts 99°
2026-05-09 20:32 46.91663 28.19147 5255 ft 213 kts 96°
2026-05-09 20:33 46.91588 28.21305 5166 ft 212 kts 93°
2026-05-09 20:33 46.91574 28.23454 5074 ft 211 kts 91°
2026-05-09 20:33 46.91587 28.25588 4995 ft 209 kts 91°
2026-05-09 20:33 46.91611 28.27710 4913 ft 209 kts 90°
2026-05-09 20:34 46.91640 28.29855 4843 ft 211 kts 90°
2026-05-09 20:34 46.91673 28.31975 4728 ft 204 kts 90°
2026-05-09 20:34 46.91708 28.34021 4600 ft 199 kts 90°
2026-05-09 20:34 46.91742 28.36019 4509 ft 195 kts 90°
2026-05-09 20:35 46.91778 28.38060 4473 ft 211 kts 90°
2026-05-09 20:35 46.91814 28.40270 4351 ft 220 kts 90°
2026-05-09 20:35 46.91852 28.42505 4259 ft 221 kts 90°
2026-05-09 20:35 46.91893 28.44753 4167 ft 221 kts 91°
2026-05-09 20:36 46.91934 28.47010 4064 ft 223 kts 91°
2026-05-09 20:36 46.91974 28.49270 3983 ft 222 kts 91°
2026-05-09 20:36 46.92016 28.51523 3893 ft 223 kts 91°
2026-05-09 20:36 46.92056 28.53800 3816 ft 225 kts 90°
2026-05-09 20:37 46.92094 28.56094 3718 ft 225 kts 90°
2026-05-09 20:37 46.92133 28.58373 3613 ft 222 kts 90°
2026-05-09 20:37 46.92169 28.60613 3525 ft 219 kts 90°
2026-05-09 20:37 46.92207 28.62846 3402 ft 221 kts 90°
2026-05-09 20:38 46.92245 28.65100 3237 ft 222 kts 90°
2026-05-09 20:38 46.92283 28.67348 3069 ft 220 kts 90°
2026-05-09 20:38 46.92321 28.69547 2921 ft 211 kts 90°
2026-05-09 20:38 46.92360 28.71629 2751 ft 200 kts 90°
2026-05-09 20:39 46.92399 28.73644 2600 ft 199 kts 90°
2026-05-09 20:39 46.92438 28.75655 2535 ft 193 kts 89°
2026-05-09 20:39 46.92473 28.77542 2484 ft 178 kts 89°
2026-05-09 20:39 46.92509 28.79295 2491 ft 169 kts 89°
2026-05-09 20:40 46.92533 28.80959 2462 ft 162 kts 91°
2026-05-09 20:40 46.92563 28.82618 2098 ft 164 kts 90°
2026-05-09 20:40 46.92613 28.84291 1616 ft 162 kts 91°
2026-05-09 20:40 46.92637 28.85886 1285 ft 155 kts 90°
2026-05-09 20:41 46.92661 28.87451 956 ft 154 kts 90°
2026-05-09 20:41 46.92697 28.89021 703 ft 155 kts 88°
2026-05-09 20:41 46.92735 28.90595 489 ft 155 kts 89°
2026-05-09 20:41 46.92756 28.92122 408 ft 139 kts 88°
2026-05-09 20:42 46.92784 28.93219 406 ft 77 kts 88°
2026-05-09 20:42 46.92795 28.93723 407 ft 37 kts 88°
2026-05-09 20:42 46.92802 28.94101 407 ft 37 kts 89°
2026-05-09 20:42 46.92808 28.94483 408 ft 38 kts 89°
2026-05-09 20:43 46.92816 28.94875 408 ft 40 kts 88°
2026-05-09 20:43 46.92828 28.95186 406 ft 3 kts 52°
2026-05-09 20:43 46.92847 28.95183 408 ft 3 kts 322°
2026-05-09 20:43 46.92874 28.95136 408 ft 10 kts 316°
2026-05-09 20:44 46.92956 28.95111 409 ft 10 kts 359°
2026-05-09 20:44 46.93016 28.95069 409 ft 10 kts 294°
2026-05-09 20:44 46.93020 28.94963 409 ft 11 kts 274°
2026-05-09 20:44 46.93036 28.94823 408 ft 19 kts 278°
2026-05-09 20:45 46.93057 28.94582 407 ft 28 kts 277°
2026-05-09 20:45 46.93082 28.94275 404 ft 30 kts 277°
2026-05-09 20:45 46.93102 28.94009 406 ft 23 kts 276°
2026-05-09 20:45 46.93118 28.93816 406 ft 3 kts 284°
2026-05-09 20:46 46.93124 28.93764 407 ft 10 kts 279°
2026-05-09 20:46 46.93136 28.93661 408 ft 10 kts 292°
2026-05-09 20:46 46.93200 28.93632 408 ft 11 kts
2026-05-09 20:46 46.93256 28.93657 407 ft 6 kts 50°
2026-05-09 20:47 46.93260 28.93716 407 ft 6 kts 92°
2026-05-09 20:47 46.93259 28.93737 407 ft 2 kts 95°
2026-05-09 20:47 46.93259 28.93738 407 ft 0 kts 96°
2026-05-09 20:48 46.93259 28.93740 407 ft 0 kts 96°